Regional Weather Roundup
Issued by NWS

Home | Current Version | Previous Version | Text Only | Print | Product List | Glossary Off
Versions: 1 2 3 4 5 6 7 8 9 10 11 12 13 14 15 16 17 18 19 20 21 22 23 24 25 26 27 28 29 30 31 32 33 34 35 36 37 38 39 40 41 42 43 44 45 46 47 48 49 50

000
ASUS43 KOAX 261802
RWRNE

WEATHER ROUNDUP FOR NEBRASKA
NATIONAL WEATHER SERVICE OMAHA NE
100 PM CDT FRI MAY 26 2017

NOTES: SATELLITE DATA IS BEING USED TO AUGMENT CLOUD COVER ABOVE
       12000 FEET.
       "FAIR" INDICATES FEW OR NO CLOUDS BELOW 12,000 FEET WITH NO
       SIGNIFICANT WEATHER AND/OR OBSTRUCTIONS TO VISIBILITY.

  * THESE STATIONS DO NOT REPORT WEATHER SUCH AS RAIN...SNOW OR FOG.

NEZ001>004-019>022-054>056-261900-
NEBRASKA PANHANDLE

CITY           SKY/WX    TMP DP  RH WIND       PRES   REMARKS
SCOTTSBLUFF    SUNNY     62  38  40 VRB5      29.94F
6HR MIN TEMP:  40; 6HR MAX TEMP:  62;

ALLIANCE       SUNNY     61  41  47 E8        29.93F
6HR MIN TEMP:  36; 6HR MAX TEMP:  62;

CHADRON        SUNNY     61  36  39 SW3       29.93S
6HR MIN TEMP:  46; 6HR MAX TEMP:  63;

SIDNEY         SUNNY     61  42  49 SE9       29.95F
6HR MIN TEMP:  42; 6HR MAX TEMP:  61;

$$

NEZ057>060-069>072-079>082-261900-
SOUTHWEST NEBRASKA

CITY           SKY/WX    TMP DP  RH WIND       PRES   REMARKS
NORTH PLATTE   SUNNY     69  44  40 N7        29.93S
6HR MIN TEMP:  52; 6HR MAX TEMP:  69;

IMPERIAL       SUNNY     66  45  46 VRB5      29.94F
6HR MIN TEMP:  50; 6HR MAX TEMP:  66;

MCCOOK         SUNNY     71  46  40 NE9       29.92S
6HR MIN TEMP:  55; 6HR MAX TEMP:  71;

$$

NEZ005>010-023>029-035>040-094-261900-
NORTH CENTRAL NEBRASKA

CITY           SKY/WX    TMP DP  RH WIND       PRES   REMARKS
VALENTINE      SUNNY     68  37  32 NW9       29.92R
6HR MIN TEMP:  44; 6HR MAX TEMP:  68;

BROKEN BOW     SUNNY     70  44  39 N10       29.92R
6HR MIN TEMP:  53; 6HR MAX TEMP:  70;

ORD            MOSUNNY   69  45  41 N13G21    29.89S
6HR MIN TEMP:  54; 6HR MAX TEMP:  70;

$$

NEZ041-046>049-061>064-073>077-083>087-261900-
SOUTH CENTRAL NEBRASKA

CITY           SKY/WX    TMP DP  RH WIND       PRES   REMARKS
GRAND ISLAND   SUNNY     72  48  42 N12       29.88S
6HR MIN TEMP:  57; 6HR MAX TEMP:  72;

HASTINGS       PTSUNNY   71  47  42 N13       29.89R
6HR MIN TEMP:  58; 6HR MAX TEMP:  71;

KEARNEY *      PTSUNNY   70  45  40 N13       29.90S
$$

NEZ011>018-030>034-042>045-261900-
NORTHEAST NEBRASKA

CITY           SKY/WX    TMP DP  RH WIND       PRES   REMARKS
NORFOLK        SUNNY     72  46  39 NW16      29.84R
6HR MIN TEMP:  57; 6HR MAX TEMP:  73;

TEKAMAH        SUNNY     74  51  44 N14       29.81R
6HR MIN TEMP:  60; 6HR MAX TEMP:  74; 6HR PCP: TRACE;

$$

NEZ050>053-065>068-078-088>093-261900-
SOUTHEAST NEBRASKA

CITY           SKY/WX    TMP DP  RH WIND       PRES   REMARKS
LINCOLN        MOSUNNY   77  51  40 N14G21    29.82S
6HR MIN TEMP:  63; 6HR MAX TEMP:  77;

OMAHA EPPLEY   MOSUNNY   76  57  51 NW12      29.79R
6HR MIN TEMP:  62; 6HR MAX TEMP:  76; 6HR PCP: TRACE;

FALLS CITY     SUNNY     81  61  50 NE10      29.75S
6HR MIN TEMP:  59; 6HR MAX TEMP:  81;

$$

NEZ044-045-051>053-067-261900-
OMAHA AREA

CITY           SKY/WX    TMP DP  RH WIND       PRES   REMARKS
OMAHA EPPLEY   MOSUNNY   76  57  51 NW12      29.79R
6HR MIN TEMP:  62; 6HR MAX TEMP:  76; 6HR PCP: TRACE;

OFFUTT AFB     SUNNY     75  57  53 NW6       29.79R
$$




USA.gov is the U.S. government's official web portal to all federal, state and local government web resources and services.